Location: East Horndon
(51.5667°N, 0.3500°E)
Time: 23:48:23
(UTC+00:00)

Cosmos 1328 - Pass Details

Date: 08 November 2025
Orbit: 463 x 480 km, 82.5° (Epoch: 04 December)

Event Time Altitude Azimuth Distance (km) Brightness Sun altitude
Rises 05:05:18 0° 195° (SSW) 2,543 7.1 -18.7°
Reaches altitude 10° 05:07:24 10° 198° (SSW) 1,670 6.1 -18.3°
Maximum altitude 05:11:03 69° 282° (WNW) 528 3.4 -17.8°
Drops below altitude 10° 05:14:44 10° 6° (N) 1,689 6.3 -17.2°
Sets 05:16:56 0° 9° (N) 2,606 7.3 -16.9°
